Погода в Богословке

Россия / Белгородская область     51°07′10″N   37°30′34″E
темп.,
°C
ветер,
м/с
пор.,
м/с
влажн.,
%
обл.,
%
осадки,
мм/ч
давл.,
гПа
погр.,
м
11 апреля, вс
вс1100:00+5с33560 0.0 102731
03:00+4с33615 0.0 102839
06:00+3с476375 0.0 1028115
09:00+8ссв6105077 0.0 1029630
12:00+11св673827 0.0 10281094
15:00+13ссв783498 0.0 10271134
18:00+11св61042100 0.0 1027742
21:00+8св51254100 0.0 1028401
12 апреля, пн
пн1200:00+7св61362100 0.0 1027424
03:00+7св61173100 0.0 1026344
06:00+6св51189100 0.0 1026329
09:00+10всв61084100 0.0 1025408
12:00+16всв796089 0.0 1023667
15:00+20в6944100 0.0 10221255
18:00+19вюв494671 0.0 1022230
21:00+14вюв486395 0.0 1023124
13 апреля, вт
вт1300:00+12вюв377199 0.0 1023117
03:00+11вюв397781 0.0 1023165
06:00+9вюв388398 0.0 1024155
09:00+12вюв4107497 0.0 1024390
12:00+19юв7114222 0.0 10221518
15:00+20юв7103198 0.0 10212026
18:00+19юв484227 0.0 1020256
21:00+15ююв375873 0.0 1021129
14 апреля, ср
ср1400:00+14юв346492 0.0 102191
03:00+11в2273100 0.0 102035
06:00+10вюв367582 0.0 1020139
09:00+15вюв5747100 0.0 1019462
12:00+17юв71041100 0.0 10191310
15:00+19юв5732100 0.0 10171968
18:00+17вюв3742100 0.0 1016192
21:00+14в3950100 0.0 1016178
15 апреля, чт
чт1500:00+13ююв3853100 0.0 1015157
03:00+11ююв236690 0.0 101645
06:00+10юз2279100 0.0 101636
09:00+13ссз2267100 0.0 1015327
12:00+17ююз2348100 0.0 10151233
15:00+18юз2245100 0.0 10131408
18:00+17з1151100 0.0 101342
21:00+13сз3668100 0.0 1012102